Weather History for KMFV - January, 2014

Change the Weather History Date:

Sunday, January 5, 2014

  Actual Average (KWAL) Record (KWAL)
Temperature  
Mean Temperature 50 °F 37 °F  
Max Temperature 64 °F 45 °F 66 °F (2004)
Min Temperature 35 °F 29 °F 13 °F (1981)
Degree Days  
Heating Degree Days 16    
Month to date heating degree days  
Since 1 July heating degree days  
Cooling Degree Days 0    
Month to date cooling degree days  
Year to date cooling degree days  
Moisture  
Dew Point 47 °F    
Average Humidity 80    
Maximum Humidity 88    
Minimum Humidity 68    
Precipitation  
Precipitation 0.00 in 0.10 in 0.39 in (2004)
Month to date precipitation 0.48  
Year to date precipitation 0.48  
Sea Level Pressure  
Sea Level Pressure 30.12 in    
Wind  
Wind Speed 5 mph (SSE)    
Max Wind Speed 14 mph    
Max Gust Speed 23 mph    
Visibility 9 miles    
Events      
T = Trace of Precipitation, MM = Missing Value Source: NWS Daily Summary

Daily Weather History Graph

Daily Weather History Graph

Search for Another Location

Airport or City:

Trip Planner

Search our weather history database for the weather conditions in past years. The results will help you decide how hot, cold, wet, or windy it might be!

Date:

Astronomy

Jan. 05, 2014 Rise Set
Actual Time 7:18 AM EST 4:58 PM EST
Civil Twilight 6:49 AM EST 5:27 PM EST
Nautical Twilight 6:16 AM EST 6:00 PM EST
Astronomical Twilight 5:45 AM EST 6:32 PM EST
Moon 10:04 AM EST (1/5) 10:17 PM EST (1/5)
Length of Visible Light 10h 38m
Length of Day
9h 40m
Waxing Crescent, 24% of the Moon is Illuminated
Jan 5
Waxing Crescent
Jan 7
First Quarter
Jan 15
Full
Jan 24
Last Quarter
Jan 30
New

Hourly Weather History & Observations

Time (EST) Temp. Windchill Dew Point Humidity Pressure Visibility Wind Dir Wind Speed Gust Speed Precip Events Conditions
12:15 AM 37.4 °F 34.9 °F 32.0 °F 81% 30.31 in 10.0 mi SW 3.5 mph - N/A   Scattered Clouds
12:35 AM 35.6 °F 31.7 °F 30.2 °F 81% 30.31 in 10.0 mi West 4.6 mph - N/A   Scattered Clouds
12:55 AM 37.4 °F 34.9 °F 33.8 °F 87% 30.30 in 10.0 mi SSW 3.5 mph - N/A   Overcast
1:15 AM 39.2 °F - 33.8 °F 81% 30.30 in 10.0 mi Calm Calm - N/A   Overcast
1:35 AM 39.2 °F - 33.8 °F 81% 30.29 in 10.0 mi Calm Calm - N/A   Overcast
1:55 AM 39.2 °F - 33.8 °F 81% 30.29 in 10.0 mi Calm Calm - N/A   Overcast
2:15 AM 39.2 °F - 33.8 °F 81% 30.30 in 10.0 mi Calm Calm - N/A   Overcast
2:35 AM 39.2 °F - 33.8 °F 81% 30.29 in 10.0 mi Calm Calm - N/A   Overcast
2:55 AM 39.2 °F 37.0 °F 33.8 °F 81% 30.29 in 10.0 mi NW 3.5 mph - N/A   Mostly Cloudy
3:15 AM 39.2 °F - 33.8 °F 81% 30.29 in 10.0 mi Calm Calm - N/A   Overcast
3:35 AM 39.2 °F - 33.8 °F 81% 30.29 in 10.0 mi Calm Calm - N/A   Overcast
3:55 AM 39.2 °F - 33.8 °F 81% 30.28 in 10.0 mi Calm Calm - N/A   Overcast
4:15 AM 39.2 °F - 33.8 °F 81% 30.28 in 10.0 mi Calm Calm - N/A   Mostly Cloudy
4:35 AM 37.4 °F 34.9 °F 33.8 °F 87% 30.27 in 10.0 mi ENE 3.5 mph - N/A   Scattered Clouds
4:56 AM 37.4 °F - 33.8 °F 87% 30.27 in 10.0 mi Calm Calm - N/A   Scattered Clouds
5:15 AM 37.4 °F - 33.8 °F 87% 30.28 in 10.0 mi Calm Calm - N/A   Mostly Cloudy
5:35 AM 37.4 °F 33.8 °F 33.8 °F 87% 30.26 in 10.0 mi ENE 4.6 mph - N/A   Mostly Cloudy
5:55 AM 37.4 °F - 33.8 °F 87% 30.26 in 10.0 mi Calm Calm - N/A   Mostly Cloudy
6:15 AM 37.4 °F - 33.8 °F 87% 30.27 in 10.0 mi Calm Calm - N/A   Overcast
6:35 AM 39.2 °F - 33.8 °F 81% 30.27 in 10.0 mi Calm Calm - N/A   Overcast
6:55 AM 39.2 °F - 35.6 °F 87% 30.27 in 10.0 mi Calm Calm - N/A   Overcast
7:15 AM 39.2 °F 37.0 °F 35.6 °F 87% 30.26 in 10.0 mi East 3.5 mph - N/A   Overcast
7:35 AM 41.0 °F - 35.6 °F 81% 30.27 in 10.0 mi Calm Calm - N/A   Overcast
7:55 AM 41.0 °F 39.0 °F 35.6 °F 81% 30.27 in 10.0 mi NE 3.5 mph - N/A   Overcast
8:15 AM 42.8 °F 40.1 °F 35.6 °F 76% 30.26 in 10.0 mi East 4.6 mph - N/A   Overcast
8:35 AM 44.6 °F 41.4 °F 35.6 °F 71% 30.25 in 10.0 mi East 5.8 mph - N/A   Overcast
8:55 AM 46.4 °F - 37.4 °F 71% 30.25 in 10.0 mi Calm Calm - N/A   Mostly Cloudy
9:15 AM 46.4 °F 44.3 °F 39.2 °F 76% 30.24 in 10.0 mi East 4.6 mph - N/A   Overcast
9:35 AM 48.2 °F - 39.2 °F 71% 30.23 in 10.0 mi ESE 4.6 mph - N/A   Scattered Clouds
9:55 AM 53.6 °F - 44.6 °F 72% 30.23 in 10.0 mi SE 3.5 mph - N/A   Scattered Clouds
10:15 AM 55.4 °F - 46.4 °F 72% 30.21 in 10.0 mi SE 4.6 mph - N/A   Mostly Cloudy
10:35 AM 57.2 °F - 48.2 °F 72% 30.20 in 10.0 mi SE 5.8 mph - N/A   Mostly Cloudy
10:55 AM 59.0 °F - 51.8 °F 77% 30.19 in 10.0 mi SSE 6.9 mph - N/A   Mostly Cloudy
11:15 AM 62.6 °F - 51.8 °F 68% 30.17 in 10.0 mi SSE 11.5 mph - N/A   Mostly Cloudy
11:35 AM 62.6 °F - 53.6 °F 72% 30.16 in 10.0 mi SSE 10.4 mph 19.6 mph N/A   Mostly Cloudy
11:55 AM 60.8 °F - 53.6 °F 77% 30.14 in 10.0 mi SSE 9.2 mph - N/A   Mostly Cloudy
12:15 PM 60.8 °F - 53.6 °F 77% 30.13 in 10.0 mi SSE 10.4 mph 19.6 mph N/A   Mostly Cloudy
12:35 PM 62.6 °F - 55.4 °F 77% 30.12 in 10.0 mi South 13.8 mph 17.3 mph N/A   Scattered Clouds
12:55 PM 62.6 °F - 55.4 °F 77% 30.12 in 10.0 mi South 8.1 mph 18.4 mph N/A   Scattered Clouds
1:15 PM 62.6 °F - 55.4 °F 77% 30.11 in 10.0 mi South 9.2 mph 17.3 mph N/A   Mostly Cloudy
1:35 PM 62.6 °F - 55.4 °F 77% 30.10 in 10.0 mi South 11.5 mph 21.9 mph N/A   Scattered Clouds
1:55 PM 62.6 °F - 55.4 °F 77% 30.10 in 10.0 mi South 6.9 mph 20.7 mph N/A   Scattered Clouds
2:15 PM 62.6 °F - 55.4 °F 77% 30.09 in 10.0 mi SSE 12.7 mph 20.7 mph N/A   Scattered Clouds
2:35 PM 62.6 °F - 55.4 °F 77% 30.07 in 10.0 mi SSE 11.5 mph 17.3 mph N/A   Clear
2:55 PM 62.6 °F - 55.4 °F 77% 30.06 in 10.0 mi SSE 8.1 mph - N/A   Mostly Cloudy
3:15 PM 62.6 °F - 55.4 °F 77% 30.06 in 10.0 mi SSE 10.4 mph - N/A   Scattered Clouds
3:36 PM 62.6 °F - 55.4 °F 77% 30.05 in 10.0 mi SSE 10.4 mph - N/A   Mostly Cloudy
3:55 PM 62.6 °F - 55.4 °F 77% 30.04 in 10.0 mi SE 8.1 mph - N/A   Scattered Clouds
4:15 PM 62.6 °F - 55.4 °F 77% 30.03 in 10.0 mi SE 9.2 mph 16.1 mph N/A   Scattered Clouds
4:35 PM 62.6 °F - 55.4 °F 77% 30.03 in 10.0 mi SSE 10.4 mph 16.1 mph N/A   Mostly Cloudy
4:55 PM 62.6 °F - 55.4 °F 77% 30.01 in 10.0 mi SE 11.5 mph - N/A   Mostly Cloudy
5:15 PM 60.8 °F - 55.4 °F 82% 30.01 in 10.0 mi SSE 10.4 mph 18.4 mph N/A   Scattered Clouds
5:35 PM 62.6 °F - 55.4 °F 77% 29.99 in 10.0 mi SSE 10.4 mph 16.1 mph N/A   Scattered Clouds
5:55 PM 62.6 °F - 55.4 °F 77% 29.99 in 10.0 mi SSE 9.2 mph - N/A   Clear
6:16 PM 62.6 °F - 55.4 °F 77% 29.98 in 10.0 mi SSE 11.5 mph 19.6 mph N/A   Scattered Clouds
6:35 PM 62.6 °F - 55.4 °F 77% 29.97 in 10.0 mi South 12.7 mph 18.4 mph N/A   Mostly Cloudy
6:55 PM 62.6 °F - 55.4 °F 77% 29.97 in 10.0 mi South 13.8 mph 19.6 mph N/A   Overcast
7:15 PM 62.6 °F - 57.2 °F 82% 29.95 in 10.0 mi SSE 10.4 mph 21.9 mph N/A   Overcast
7:35 PM 62.6 °F - 57.2 °F 82% 29.93 in 10.0 mi SSE 11.5 mph 21.9 mph N/A   Overcast
7:56 PM 64.4 °F - 59.0 °F 83% 29.93 in 10.0 mi South 11.5 mph 19.6 mph N/A   Mostly Cloudy
8:16 PM 64.4 °F - 59.0 °F 83% 29.92 in 10.0 mi South 12.7 mph 23.0 mph N/A   Overcast
8:35 PM 62.6 °F - 57.2 °F 82% 29.90 in 10.0 mi South 12.7 mph 23.0 mph N/A   Overcast
8:55 PM 62.6 °F - 57.2 °F 82% 29.90 in 10.0 mi South 12.7 mph 21.9 mph N/A   Overcast
9:15 PM 62.6 °F - 57.2 °F 82% 29.89 in 10.0 mi South 12.7 mph 20.7 mph N/A   Overcast
9:37 PM 60.8 °F - 57.2 °F 88% 29.88 in 7.0 mi South 12.7 mph 21.9 mph N/A   Overcast
9:56 PM 60.8 °F - 57.2 °F 88% 29.87 in 7.0 mi South 12.7 mph 23.0 mph N/A   Overcast
10:16 PM 60.8 °F - 57.2 °F 88% 29.86 in 7.0 mi South 13.8 mph 21.9 mph N/A   Overcast
10:36 PM 60.8 °F - 57.2 °F 88% 29.85 in 5.0 mi South 12.7 mph 21.9 mph N/A   Overcast
10:56 PM 60.8 °F - 57.2 °F 88% 29.84 in 5.0 mi South 10.4 mph 21.9 mph N/A   Light Drizzle
11:16 PM 60.8 °F - 57.2 °F 88% 29.82 in 3.0 mi South 12.7 mph 17.3 mph N/A   Overcast
11:36 PM 60.8 °F - 57.2 °F 88% 29.81 in 1.8 mi South 9.2 mph 16.1 mph N/A   Overcast
11:57 PM 60.8 °F - 57.2 °F 88% 29.80 in 2.0 mi South 6.9 mph - N/A   Overcast